Location: College Park
(38.9810°N, 76.9370°W)
Time: 22:43:24
(UTC-05:00)

Hubble Space Telescope - Pass Details

Date: 17 November 2017
Orbit: 537 x 541 km, 28.5° (Epoch: 21 November)

Event Time Altitude Azimuth Distance (km) Brightness Sun altitude
Rises 06:14:11 0° 234° (SW) 2,668 4.0 -7.9°
Reaches altitude 10° 06:17:02 10° 214° (SW) 1,779 3.3 -7.4°
Maximum altitude 06:19:45 17° 172° (S) 1,388 3.2 -6.9°
Drops below altitude 10° 06:22:28 10° 131° (SE) 1,782 4.8 -6.4°
Sets 06:25:20 0° 111° (ESE) 2,674 7.3 -5.8°
